Location: Puketoi
(40.5833°S, 176.0167°E)
Time: 15:15:22
(UTC+00:00)

Delta 2 Rocket - Pass Details

Date: 08 February 2023
Orbit: 410 x 753 km, 35.6° (Epoch: 23 March)

Event Time Altitude Azimuth Distance (km) Brightness Sun altitude
Exits shadow 16:32:23 15° 292° (WNW) 1,854 5.3 -11.1°
Maximum altitude 16:36:27 50° 3° (N) 935 4.3 -10.5°
Drops below altitude 10° 16:41:42 10° 77° (ENE) 2,285 7.2 -9.6°
Sets 16:44:16 0° 82° (E) 3,221 8.2 -9.2°
